Home > Weather > Arth > Past weeks

Flag for Switzerland Past Weather in Arth, Schwyz, Switzerland — Yesterday and Last 2 Weeks

Now
59 °F

Cool.


Feels Like: 59 °F
Forecast: 47 / 54 °F
Wind: 2 mph from West

Location: Altdorf

Current Time: May 28, 2016 at 8:05:15 AM

Latest Report: May 28, 2016 at 7:00 AM


Visibility: N/A

Pressure: 29.97 "Hg

Humidity: 92%

Dew Point: 57 °F

Location of ArthLocation

Past Weather in Arth — Graph

°F

Arth Temperature Yesterday

Maximum temperature yesterday: 76 °F (at 4:00 PM)
Minimum temperature yesterday: 58 °F (at 5:00 AM)
Average temperature yesterday: 67 °F

High & Low Weather Summary for the Past Weeks

 TemperatureHumidityPressure
High78 °F (May 22, 4:00 PM)96% (May 13, 11:00 PM)30.24 "Hg (May 13, 11:00 PM)
Low42 °F (May 20, 7:00 AM)29% (May 22, 4:00 PM)29.57 "Hg (May 13, 6:00 AM)
Average55 °F73%29.98 "Hg
* Reported May 13 6:00 AM — May 28 6:00 AM, Arth, Weather by CustomWeather, © 2016

Note: Actual official high and low records may vary slightly from our data, if they occured in-between our weather recording intervals... More about our weather records

Advertising

Arth Weather History for the Previous 24 Hours

Scroll right to see more
 ConditionsComfort  
Time TempWeatherWind HumidityBarometerVisibility
6:00 AM
Sat, May 28
59 °FCool.3 mph93%29.99 "HgN/A
5:00 AM60 °FDrizzle. Overcast.2 mph93%30.01 "Hg6 mi
4:00 AM60 °FCool.3 mph91%30.01 "HgN/A
3:00 AM61 °FCool.3 mph90%29.99 "HgN/A
2:00 AM61 °FPassing clouds.1 mph81%29.90 "Hg12 mi
1:00 AM61 °FCool.2 mph83%29.93 "HgN/A
12:00 AM64 °FMild.2 mph81%29.93 "HgN/A
11:00 PM
Fri, May 27
65 °FPassing clouds.2 mph79%29.92 "Hg14 mi
10:00 PM64 °FMild.3 mph87%29.93 "HgN/A
9:00 PM67 °FMild.3 mph80%29.91 "HgN/A
8:00 PM67 °FPartly sunny.7 mph79%29.90 "Hg14 mi
7:00 PM72 °FMild.5 mph58%29.86 "HgN/A
6:00 PM71 °FMild.5 mph64%29.86 "HgN/A
5:00 PM75 °FPassing clouds.6 mph57%29.85 "Hg14 mi
4:00 PM76 °FMild.7 mph57%29.86 "HgN/A
3:00 PM76 °FMild.9 mph54%29.87 "HgN/A
2:00 PM74 °FScattered clouds.8 mph57%29.88 "Hg12 mi
1:00 PM73 °FMild.6 mph62%29.90 "HgN/A
12:00 PM71 °FMild.3 mph61%29.92 "HgN/A
11:00 AM69 °FPartly sunny.3 mph58%29.94 "Hg16 mi
10:00 AM64 °FMild.5 mph68%29.96 "HgN/A
9:00 AM62 °FCool.5 mph77%29.97 "HgN/A
8:00 AM61 °FOvercast.2 mph78%29.96 "Hg14 mi
Weather by CustomWeather, © 2016

See weather overviewHow to use our weather pages